Location: Eferding
(48.3167°N, 14.0167°E)
Time: 07:52:11
(UTC+00:00)

Cosmos 1805 Rocket - Pass Details

Date: 12 November 2019
Orbit: 606 x 629 km, 82.5° (Epoch: 12 December)

Event Time Altitude Azimuth Distance (km) Brightness Sun altitude
Rises 16:26:07 0° 357° (N) 2,878 6.9 -9.6°
Reaches altitude 10° 16:28:29 10° 5° (N) 1,971 5.9 -10.0°
Maximum altitude 16:32:32 37° 74° (ENE) 960 4.0 -10.6°
Drops below altitude 10° 16:36:35 10° 142° (SE) 1,965 5.9 -11.3°
Sets 16:38:56 0° 151° (SSE) 2,868 6.8 -11.7°
